GFSNW_prec_precacc_204.txt.gz
Total_Precipitation_Accumulation
0.87 0.80 0.85 0.93 1.47 2.09 2.15 1.75 1.70 1.84 1.27 1.58 1.23 0.76 0.46 0.16 0.04 0.01 0.00 0.00 0.01 0.01 0.02 0.01 0.01 0.01 0.02 0.02 0.01 0.01 0.00 0.13 0.17 0.11 0.06 0.06 0.07 0.03 0.12 0.42 0.25 0.37 0.39 0.31
0.68 0.69 0.67 0.77 1.03 1.40 2.02 1.55 1.84 1.97 0.94 0.76 0.57 0.30 0.08 0.09 0.06 0.03 0.00 0.00 0.00 0.01 0.01 0.01 0.01 0.00 0.00 0.00 0.00 0.01 0.01 0.15 0.22 0.24 0.20 0.12 0.17 0.05 0.10 0.22 0.46 0.32 0.25 0.07
0.74 0.63 0.53 0.65 0.97 1.19 1.55 1.28 1.76 2.30 1.30 0.36 0.09 0.14 0.12 0.06 0.03 0.01 0.01 0.02 0.02 0.01 0.01 0.00 0.00 0.00 0.00 0.00 0.00 0.02 0.11 0.17 0.12 0.14 0.31 0.42 0.32 0.07 0.09 0.38 0.64 0.14 0.08 0.02
0.89 0.74 0.59 0.59 0.96 1.32 1.23 0.82 0.49 0.57 0.71 0.23 0.03 0.05 0.07 0.04 0.01 0.01 0.03 0.04 0.04 0.02 0.02 0.01 0.00 0.00 0.00 0.00 0.02 0.13 0.33 0.25 0.11 0.12 0.22 0.58 0.38 0.14 0.10 0.39 0.19 0.26 0.09 0.04
1.22 1.05 0.64 0.55 0.94 1.08 1.13 0.93 0.34 0.11 0.03 0.02 0.01 0.02 0.05 0.04 0.02 0.03 0.04 0.01 0.01 0.03 0.03 0.01 0.00 0.00 0.00 0.01 0.03 0.13 0.31 0.38 0.33 0.34 0.25 0.35 0.27 0.07 0.11 0.12 0.04 0.05 0.02 0.04
1.09 0.92 0.69 0.54 0.81 1.17 1.06 0.96 0.35 0.15 0.06 0.03 0.02 0.01 0.02 0.03 0.03 0.03 0.00 0.01 0.02 0.03 0.01 0.01 0.01 0.01 0.01 0.01 0.07 0.26 0.41 0.47 0.64 0.48 0.18 0.19 0.26 0.08 0.06 0.09 0.07 0.03 0.04 0.05
0.95 0.86 0.77 0.64 0.82 1.03 0.91 0.90 0.58 0.22 0.11 0.03 0.02 0.01 0.00 0.01 0.02 0.03 0.00 0.00 0.03 0.02 0.01 0.01 0.01 0.00 0.01 0.01 0.01 0.05 0.19 0.42 0.73 0.83 0.44 0.44 0.25 0.10 0.14 0.15 0.12 0.06 0.05 0.07
0.81 0.64 0.56 0.68 0.89 0.69 0.65 0.69 0.72 0.35 0.17 0.04 0.02 0.01 0.02 0.03 0.03 0.01 0.00 0.01 0.00 0.02 0.03 0.05 0.06 0.02 0.01 0.00 0.00 0.01 0.02 0.17 0.40 0.42 0.30 0.15 0.04 0.07 0.11 0.09 0.09 0.03 0.03 0.02
1.26 0.91 0.55 0.54 0.57 0.46 0.50 0.57 0.73 0.50 0.29 0.07 0.02 0.03 0.02 0.05 0.07 0.02 0.01 0.00 0.01 0.05 0.11 0.19 0.14 0.03 0.02 0.01 0.01 0.00 0.01 0.03 0.19 0.15 0.21 0.08 0.02 0.01 0.02 0.02 0.02 0.00 0.00 0.01
1.48 1.11 0.70 0.47 0.48 0.46 0.43 0.63 0.63 0.62 0.40 0.09 0.01 0.05 0.03 0.03 0.03 0.03 0.01 0.02 0.05 0.09 0.17 0.26 0.08 0.02 0.00 0.00 0.01 0.02 0.06 0.13 0.16 0.14 0.17 0.01 0.00 0.00 0.00 0.03 0.02 0.00 0.00 0.00
1.20 0.94 0.75 0.56 0.47 0.44 0.48 0.47 0.47 0.65 0.43 0.11 0.01 0.01 0.02 0.00 0.01 0.05 0.04 0.10 0.13 0.21 0.28 0.28 0.11 0.04 0.01 0.00 0.00 0.00 0.02 0.04 0.06 0.07 0.11 0.01 0.00 0.00 0.00 0.00 0.00 0.00 0.01 0.01
0.89 0.81 0.59 0.44 0.48 0.49 0.57 0.54 0.38 0.38 0.46 0.21 0.03 0.01 0.00 0.00 0.00 0.03 0.03 0.11 0.13 0.25 0.33 0.29 0.16 0.09 0.04 0.02 0.02 0.00 0.00 0.00 0.00 0.00 0.00 0.00 0.00 0.00 0.00 0.00 0.00 0.00 0.00 0.00
0.95 0.78 0.52 0.43 0.48 0.55 0.67 0.57 0.38 0.47 0.56 0.28 0.11 0.05 0.00 0.00 0.00 0.00 0.08 0.09 0.15 0.24 0.22 0.36 0.22 0.13 0.08 0.05 0.02 0.00 0.00 0.00 0.00 0.00 0.00 0.00 0.00 0.00 0.00 0.00 0.00 0.00 0.01 0.01
0.93 0.89 0.68 0.50 0.56 0.50 0.66 0.41 0.28 0.54 0.68 0.62 0.16 0.01 0.02 0.01 0.02 0.02 0.02 0.09 0.17 0.29 0.48 0.38 0.27 0.16 0.06 0.05 0.02 0.01 0.01 0.00 0.00 0.00 0.00 0.00 0.00 0.00 0.00 0.00 0.00 0.00 0.00 0.00
0.84 0.87 0.75 0.53 0.80 0.68 0.55 0.41 0.29 0.38 0.82 0.85 0.29 0.18 0.02 0.01 0.05 0.04 0.06 0.11 0.30 0.35 0.62 0.67 0.33 0.15 0.12 0.05 0.02 0.01 0.00 0.00 0.00 0.00 0.00 0.00 0.00 0.00 0.00 0.00 0.00 0.00 0.00 0.00
0.94 0.87 1.02 0.73 1.00 1.13 1.05 1.55 1.01 0.55 0.68 1.30 1.01 0.47 0.16 0.07 0.10 0.10 0.15 0.22 0.44 0.70 0.57 0.61 0.38 0.16 0.28 0.26 0.06 0.00 0.00 0.00 0.00 0.00 0.00 0.00 0.00 0.00 0.00 0.00 0.00 0.00 0.00 0.00
1.08 1.13 1.27 0.93 1.39 1.58 1.60 1.31 1.18 0.86 1.08 1.88 2.05 1.18 0.56 0.15 0.24 0.27 0.30 0.32 0.59 1.01 0.82 0.57 0.39 0.34 0.64 0.46 0.10 0.00 0.01 0.01 0.01 0.01 0.00 0.00 0.00 0.00 0.00 0.00 0.00 0.00 0.00 0.00
1.61 1.42 1.52 1.63 2.32 2.41 2.13 0.74 0.67 0.88 1.96 2.72 2.62 1.71 1.22 0.42 0.69 0.59 0.42 0.42 0.60 1.29 0.91 0.42 0.32 0.48 0.57 0.48 0.04 0.05 0.04 0.04 0.02 0.01 0.02 0.01 0.01 0.00 0.00 0.00 0.00 0.00 0.00 0.00
2.70 2.65 2.71 3.12 2.62 2.14 2.06 1.43 1.35 1.60 2.68 2.95 1.89 1.33 1.09 0.88 0.92 0.71 0.82 0.61 0.98 1.10 0.79 0.29 0.35 0.44 0.60 0.13 0.08 0.11 0.14 0.15 0.17 0.13 0.06 0.06 0.05 0.02 0.03 0.02 0.03 0.04 0.04 0.04
3.13 3.61 3.28 2.76 1.80 1.64 2.24 3.62 4.36 4.82 3.92 2.44 1.43 0.82 0.76 1.17 1.05 1.02 1.19 1.15 1.05 1.13 0.60 0.43 0.69 0.30 0.04 0.05 0.12 0.09 0.15 0.30 0.34 0.42 0.30 0.17 0.23 0.14 0.10 0.15 0.11 0.12 0.14 0.14
2.70 2.80 2.51 2.18 1.99 2.12 3.45 4.44 3.98 3.03 2.25 1.37 0.85 0.61 0.70 0.80 0.93 0.83 1.07 1.54 1.37 1.26 0.64 0.49 0.58 0.40 0.12 0.07 0.05 0.04 0.08 0.18 0.14 0.31 0.32 0.20 0.30 0.35 0.25 0.29 0.33 0.34 0.35 0.34
2.12 1.98 1.95 2.31 3.16 3.81 3.69 3.16 1.83 1.09 0.82 0.83 0.71 0.54 0.54 0.86 0.91 1.33 1.50 1.36 1.22 0.97 0.54 0.78 0.54 0.28 0.18 0.20 0.09 0.06 0.04 0.06 0.07 0.10 0.22 0.18 0.11 0.16 0.19 0.27 0.30 0.29 0.34 0.36
1.70 2.39 3.08 3.07 3.29 3.39 2.44 1.44 0.91 0.69 0.57 0.59 0.40 0.58 0.80 1.24 1.47 2.01 1.77 1.46 0.94 0.73 0.87 0.63 0.22 0.07 0.03 0.10 0.19 0.21 0.17 0.10 0.25 0.27 0.18 0.11 0.09 0.11 0.14 0.15 0.11 0.10 0.11 0.10
2.50 2.75 2.71 2.02 1.79 1.13 0.76 0.49 0.40 0.36 0.49 0.55 0.58 0.68 0.95 1.23 1.43 1.53 1.53 1.11 0.89 1.05 0.68 0.37 0.17 0.15 0.10 0.05 0.07 0.13 0.18 0.16 0.27 0.58 0.62 0.46 0.46 0.41 0.31 0.22 0.16 0.12 0.11 0.07
2.92 2.40 1.69 1.00 0.61 0.35 0.37 0.35 0.39 0.45 0.71 1.01 1.09 1.14 1.17 1.34 1.67 1.26 0.96 1.07 1.02 0.71 0.51 0.41 0.35 0.37 0.34 0.31 0.25 0.19 0.23 0.31 0.35 0.39 0.50 0.49 0.38 0.23 0.25 0.30 0.28 0.18 0.13 0.10
2.65 2.13 1.06 0.46 0.27 0.31 0.22 0.29 0.41 0.44 0.61 0.97 1.34 1.43 1.44 1.37 1.23 1.12 0.81 0.85 0.67 0.56 0.56 0.58 0.53 0.51 0.49 0.50 0.43 0.37 0.37 0.40 0.48 0.47 0.54 0.51 0.50 0.41 0.34 0.32 0.45 0.37 0.27 0.27
2.70 1.19 0.51 0.37 0.31 0.30 0.30 0.34 0.39 0.50 0.68 0.91 1.24 1.45 1.04 1.05 1.11 0.77 0.67 0.77 0.67 0.57 0.48 0.40 0.40 0.37 0.40 0.42 0.36 0.36 0.39 0.40 0.45 0.53 0.58 0.63 0.68 0.63 0.54 0.46 0.55 0.55 0.58 0.55

GFSNW_prec_precacc_207.txt.gz
Total_Precipitation_Accumulation
0.87 0.80 0.85 0.93 1.47 2.09 2.15 1.75 1.70 1.84 1.27 1.58 1.23 0.76 0.46 0.16 0.04 0.01 0.00 0.00 0.01 0.01 0.02 0.01 0.01 0.01 0.02 0.02 0.01 0.01 0.00 0.13 0.17 0.11 0.06 0.06 0.07 0.03 0.12 0.42 0.25 0.38 0.40 0.32
0.68 0.69 0.67 0.77 1.03 1.40 2.02 1.55 1.84 1.97 0.94 0.76 0.57 0.30 0.08 0.09 0.06 0.03 0.00 0.00 0.00 0.01 0.01 0.01 0.01 0.00 0.00 0.00 0.00 0.01 0.01 0.15 0.22 0.24 0.20 0.12 0.17 0.05 0.10 0.22 0.46 0.32 0.26 0.07
0.74 0.63 0.53 0.65 0.97 1.19 1.55 1.28 1.76 2.30 1.30 0.36 0.09 0.14 0.12 0.06 0.03 0.01 0.01 0.02 0.02 0.01 0.01 0.00 0.00 0.00 0.00 0.00 0.00 0.02 0.11 0.17 0.12 0.14 0.31 0.42 0.32 0.07 0.09 0.38 0.64 0.14 0.08 0.02
0.89 0.74 0.59 0.59 0.96 1.32 1.23 0.82 0.49 0.57 0.71 0.23 0.03 0.05 0.07 0.04 0.01 0.01 0.03 0.04 0.04 0.02 0.02 0.01 0.00 0.00 0.00 0.00 0.02 0.13 0.33 0.25 0.11 0.12 0.22 0.58 0.38 0.14 0.10 0.39 0.19 0.26 0.09 0.04
1.22 1.05 0.64 0.55 0.94 1.08 1.13 0.93 0.34 0.11 0.03 0.02 0.01 0.02 0.05 0.04 0.02 0.03 0.04 0.01 0.01 0.03 0.03 0.01 0.00 0.00 0.00 0.01 0.03 0.13 0.31 0.38 0.33 0.34 0.25 0.35 0.27 0.07 0.11 0.12 0.04 0.05 0.02 0.04
1.09 0.92 0.69 0.54 0.81 1.17 1.06 0.96 0.35 0.15 0.06 0.03 0.02 0.01 0.02 0.03 0.03 0.03 0.00 0.01 0.02 0.03 0.01 0.01 0.01 0.01 0.01 0.01 0.07 0.26 0.41 0.47 0.65 0.49 0.18 0.19 0.26 0.08 0.06 0.09 0.07 0.03 0.04 0.05
0.95 0.86 0.77 0.64 0.82 1.03 0.91 0.90 0.58 0.22 0.11 0.03 0.02 0.01 0.00 0.01 0.02 0.03 0.00 0.00 0.03 0.02 0.01 0.01 0.01 0.00 0.01 0.01 0.01 0.05 0.19 0.42 0.74 0.84 0.44 0.44 0.25 0.10 0.14 0.15 0.12 0.06 0.05 0.07
0.81 0.64 0.56 0.68 0.89 0.69 0.65 0.69 0.72 0.35 0.17 0.04 0.02 0.01 0.02 0.03 0.03 0.01 0.00 0.01 0.00 0.02 0.03 0.05 0.06 0.02 0.01 0.00 0.00 0.01 0.02 0.17 0.41 0.43 0.30 0.15 0.04 0.07 0.11 0.09 0.09 0.03 0.03 0.02
1.26 0.91 0.55 0.54 0.57 0.46 0.50 0.57 0.74 0.50 0.30 0.07 0.02 0.03 0.02 0.05 0.07 0.02 0.01 0.00 0.01 0.05 0.11 0.19 0.14 0.03 0.02 0.01 0.01 0.00 0.01 0.03 0.19 0.15 0.21 0.08 0.02 0.01 0.02 0.02 0.02 0.00 0.00 0.01
1.48 1.11 0.70 0.47 0.48 0.46 0.43 0.63 0.63 0.64 0.42 0.10 0.01 0.05 0.03 0.03 0.03 0.03 0.01 0.02 0.05 0.09 0.17 0.26 0.08 0.02 0.00 0.00 0.01 0.02 0.06 0.13 0.17 0.14 0.17 0.01 0.00 0.00 0.00 0.03 0.02 0.00 0.00 0.00
1.20 0.94 0.76 0.56 0.47 0.45 0.48 0.48 0.47 0.67 0.46 0.11 0.01 0.01 0.02 0.00 0.01 0.06 0.04 0.10 0.13 0.21 0.29 0.28 0.11 0.04 0.01 0.00 0.00 0.00 0.02 0.04 0.07 0.08 0.12 0.01 0.00 0.00 0.00 0.00 0.00 0.00 0.01 0.01
0.89 0.81 0.59 0.44 0.48 0.49 0.57 0.54 0.38 0.38 0.47 0.21 0.03 0.01 0.00 0.00 0.00 0.03 0.03 0.11 0.13 0.26 0.34 0.30 0.16 0.10 0.04 0.03 0.03 0.00 0.00 0.00 0.00 0.00 0.00 0.00 0.00 0.00 0.00 0.00 0.00 0.00 0.00 0.00
0.95 0.78 0.52 0.43 0.48 0.55 0.67 0.57 0.38 0.47 0.56 0.28 0.11 0.05 0.00 0.00 0.00 0.00 0.08 0.09 0.15 0.24 0.22 0.37 0.22 0.14 0.08 0.05 0.02 0.01 0.00 0.00 0.00 0.00 0.00 0.00 0.00 0.00 0.00 0.00 0.00 0.00 0.01 0.01
0.93 0.89 0.68 0.50 0.56 0.50 0.66 0.41 0.28 0.54 0.69 0.62 0.16 0.01 0.02 0.01 0.02 0.02 0.02 0.09 0.17 0.29 0.49 0.41 0.30 0.18 0.06 0.05 0.02 0.01 0.01 0.00 0.00 0.00 0.00 0.00 0.00 0.00 0.00 0.00 0.00 0.00 0.00 0.00
0.84 0.87 0.75 0.53 0.80 0.68 0.55 0.41 0.29 0.38 0.82 0.85 0.29 0.18 0.02 0.01 0.05 0.04 0.06 0.11 0.30 0.35 0.62 0.68 0.35 0.16 0.13 0.05 0.03 0.01 0.00 0.00 0.00 0.00 0.00 0.00 0.00 0.00 0.00 0.00 0.00 0.00 0.00 0.00
0.94 0.87 1.02 0.73 1.00 1.13 1.05 1.55 1.01 0.55 0.68 1.31 1.02 0.47 0.16 0.07 0.10 0.10 0.15 0.22 0.44 0.70 0.58 0.62 0.38 0.16 0.28 0.26 0.06 0.00 0.00 0.00 0.00 0.00 0.00 0.00 0.00 0.00 0.00 0.00 0.00 0.00 0.00 0.00
1.08 1.13 1.27 0.93 1.39 1.58 1.60 1.31 1.18 0.86 1.09 1.89 2.05 1.18 0.56 0.15 0.24 0.27 0.30 0.32 0.59 1.01 0.83 0.58 0.40 0.34 0.64 0.47 0.11 0.00 0.01 0.01 0.01 0.01 0.00 0.00 0.00 0.00 0.00 0.00 0.00 0.00 0.00 0.00
1.61 1.42 1.52 1.63 2.32 2.41 2.14 0.74 0.68 0.90 1.98 2.73 2.62 1.71 1.22 0.42 0.69 0.59 0.42 0.42 0.60 1.30 0.92 0.43 0.32 0.48 0.59 0.50 0.04 0.05 0.04 0.04 0.02 0.01 0.02 0.01 0.01 0.00 0.00 0.00 0.00 0.00 0.00 0.00
2.70 2.65 2.71 3.12 2.62 2.14 2.06 1.43 1.35 1.62 2.70 2.97 1.90 1.34 1.09 0.88 0.92 0.71 0.82 0.61 0.99 1.10 0.80 0.29 0.35 0.44 0.61 0.13 0.08 0.11 0.14 0.15 0.17 0.13 0.06 0.06 0.05 0.02 0.03 0.02 0.03 0.04 0.04 0.04
3.13 3.61 3.28 2.76 1.80 1.64 2.24 3.62 4.36 4.84 3.95 2.46 1.44 0.82 0.76 1.17 1.05 1.02 1.19 1.17 1.06 1.15 0.61 0.44 0.70 0.31 0.04 0.05 0.12 0.09 0.15 0.30 0.34 0.42 0.30 0.17 0.23 0.14 0.10 0.15 0.11 0.12 0.14 0.14
2.70 2.80 2.51 2.18 1.99 2.12 3.45 4.44 3.98 3.03 2.26 1.37 0.85 0.62 0.70 0.80 0.94 0.85 1.07 1.55 1.38 1.29 0.65 0.50 0.59 0.41 0.13 0.07 0.05 0.04 0.08 0.18 0.14 0.31 0.32 0.20 0.30 0.35 0.25 0.29 0.33 0.34 0.35 0.34
2.12 1.98 1.95 2.31 3.16 3.82 3.69 3.16 1.83 1.10 0.84 0.87 0.75 0.55 0.54 0.86 0.93 1.36 1.51 1.36 1.22 0.98 0.55 0.82 0.55 0.29 0.18 0.20 0.09 0.06 0.04 0.06 0.07 0.10 0.22 0.18 0.11 0.16 0.19 0.27 0.30 0.29 0.34 0.36
1.70 2.39 3.08 3.07 3.29 3.39 2.45 1.44 0.91 0.72 0.58 0.60 0.40 0.59 0.80 1.25 1.51 2.04 1.78 1.48 0.94 0.74 0.88 0.66 0.25 0.09 0.03 0.10 0.19 0.21 0.17 0.10 0.25 0.27 0.18 0.11 0.09 0.11 0.14 0.15 0.11 0.10 0.11 0.10
2.50 2.75 2.71 2.02 1.79 1.13 0.76 0.50 0.40 0.36 0.49 0.55 0.58 0.68 0.95 1.24 1.45 1.54 1.56 1.11 0.91 1.12 0.75 0.41 0.19 0.15 0.10 0.05 0.07 0.13 0.18 0.17 0.28 0.60 0.65 0.48 0.48 0.41 0.31 0.22 0.16 0.12 0.11 0.07
2.92 2.40 1.69 1.00 0.61 0.35 0.38 0.35 0.39 0.45 0.71 1.01 1.09 1.14 1.18 1.34 1.68 1.29 1.02 1.13 1.11 0.75 0.52 0.42 0.36 0.38 0.35 0.32 0.26 0.20 0.24 0.32 0.38 0.42 0.55 0.55 0.42 0.24 0.25 0.30 0.28 0.18 0.13 0.10
2.65 2.13 1.06 0.46 0.27 0.31 0.22 0.29 0.41 0.44 0.61 0.97 1.35 1.44 1.45 1.38 1.25 1.17 0.88 0.91 0.70 0.59 0.58 0.60 0.54 0.52 0.50 0.52 0.46 0.40 0.40 0.44 0.52 0.52 0.61 0.56 0.56 0.50 0.40 0.34 0.46 0.37 0.28 0.28
2.70 1.19 0.51 0.37 0.31 0.30 0.30 0.34 0.39 0.51 0.68 0.91 1.25 1.46 1.05 1.07 1.15 0.79 0.68 0.80 0.70 0.59 0.50 0.42 0.43 0.39 0.42 0.44 0.39 0.39 0.42 0.42 0.48 0.58 0.66 0.72 0.77 0.73 0.64 0.54 0.61 0.58 0.62 0.63

GFSNW_prec_precacc_210.txt.gz
Total_Precipitation_Accumulation
0.87 0.80 0.85 0.93 1.47 2.09 2.15 1.75 1.70 1.84 1.27 1.58 1.23 0.76 0.46 0.16 0.04 0.01 0.00 0.00 0.01 0.01 0.02 0.01 0.01 0.01 0.02 0.02 0.01 0.01 0.00 0.13 0.17 0.11 0.06 0.06 0.07 0.03 0.12 0.42 0.25 0.38 0.41 0.32
0.68 0.69 0.67 0.77 1.03 1.40 2.02 1.55 1.84 1.97 0.94 0.76 0.57 0.30 0.08 0.09 0.06 0.03 0.00 0.00 0.00 0.01 0.01 0.01 0.01 0.00 0.00 0.00 0.00 0.01 0.01 0.15 0.22 0.24 0.20 0.12 0.17 0.05 0.10 0.22 0.46 0.32 0.26 0.07
0.74 0.63 0.53 0.65 0.97 1.19 1.55 1.28 1.76 2.30 1.30 0.36 0.09 0.14 0.12 0.06 0.03 0.01 0.01 0.02 0.02 0.01 0.01 0.00 0.00 0.00 0.00 0.00 0.00 0.02 0.11 0.17 0.12 0.14 0.31 0.42 0.32 0.07 0.09 0.38 0.64 0.14 0.08 0.02
0.89 0.74 0.59 0.59 0.96 1.32 1.23 0.82 0.49 0.57 0.71 0.23 0.03 0.05 0.07 0.04 0.01 0.01 0.03 0.04 0.04 0.02 0.02 0.01 0.00 0.00 0.00 0.00 0.02 0.13 0.33 0.25 0.11 0.12 0.22 0.58 0.38 0.14 0.10 0.39 0.19 0.26 0.09 0.04
1.22 1.05 0.64 0.55 0.94 1.08 1.13 0.93 0.34 0.11 0.03 0.02 0.01 0.02 0.05 0.04 0.02 0.03 0.04 0.01 0.01 0.03 0.03 0.01 0.00 0.00 0.00 0.01 0.03 0.13 0.31 0.38 0.33 0.34 0.25 0.35 0.27 0.07 0.11 0.12 0.04 0.05 0.02 0.04
1.09 0.92 0.69 0.54 0.81 1.17 1.06 0.96 0.35 0.15 0.06 0.03 0.02 0.01 0.02 0.03 0.03 0.03 0.00 0.01 0.02 0.03 0.01 0.01 0.01 0.01 0.01 0.01 0.07 0.26 0.41 0.47 0.65 0.49 0.18 0.19 0.26 0.08 0.06 0.09 0.07 0.03 0.04 0.05
0.95 0.86 0.77 0.64 0.82 1.03 0.91 0.90 0.58 0.22 0.11 0.03 0.02 0.01 0.00 0.01 0.02 0.03 0.00 0.00 0.03 0.02 0.01 0.01 0.01 0.00 0.01 0.01 0.01 0.05 0.19 0.42 0.76 0.86 0.44 0.44 0.25 0.10 0.14 0.15 0.12 0.06 0.05 0.07
0.81 0.64 0.56 0.68 0.89 0.69 0.65 0.69 0.72 0.35 0.17 0.04 0.02 0.01 0.02 0.03 0.03 0.01 0.00 0.01 0.00 0.02 0.03 0.05 0.06 0.02 0.01 0.00 0.00 0.01 0.02 0.17 0.41 0.43 0.30 0.15 0.04 0.07 0.11 0.09 0.09 0.03 0.03 0.02
1.26 0.92 0.55 0.54 0.57 0.46 0.50 0.57 0.74 0.50 0.30 0.07 0.02 0.03 0.02 0.05 0.07 0.02 0.01 0.00 0.01 0.05 0.11 0.19 0.14 0.03 0.02 0.01 0.01 0.00 0.01 0.03 0.19 0.15 0.21 0.08 0.02 0.01 0.02 0.02 0.02 0.00 0.00 0.01
1.48 1.11 0.70 0.47 0.48 0.46 0.44 0.64 0.63 0.65 0.42 0.10 0.01 0.05 0.03 0.03 0.03 0.03 0.01 0.02 0.05 0.09 0.17 0.26 0.08 0.02 0.00 0.00 0.01 0.02 0.06 0.13 0.17 0.14 0.17 0.01 0.00 0.00 0.00 0.03 0.02 0.00 0.00 0.00
1.20 0.94 0.76 0.56 0.48 0.45 0.49 0.48 0.48 0.68 0.47 0.11 0.01 0.01 0.02 0.00 0.01 0.06 0.04 0.10 0.13 0.21 0.29 0.28 0.11 0.04 0.01 0.00 0.00 0.00 0.02 0.04 0.07 0.08 0.14 0.02 0.00 0.00 0.00 0.00 0.00 0.00 0.01 0.01
0.89 0.81 0.59 0.44 0.48 0.49 0.58 0.55 0.38 0.38 0.47 0.21 0.03 0.01 0.00 0.00 0.00 0.03 0.03 0.11 0.13 0.26 0.34 0.31 0.17 0.10 0.04 0.03 0.03 0.00 0.01 0.00 0.02 0.01 0.00 0.00 0.00 0.00 0.00 0.00 0.00 0.00 0.00 0.00
0.95 0.78 0.52 0.43 0.48 0.55 0.67 0.57 0.38 0.47 0.56 0.28 0.11 0.05 0.00 0.00 0.00 0.00 0.08 0.09 0.15 0.24 0.22 0.38 0.23 0.14 0.08 0.05 0.02 0.01 0.00 0.00 0.01 0.00 0.00 0.00 0.00 0.00 0.00 0.00 0.00 0.00 0.01 0.01
0.93 0.89 0.68 0.50 0.56 0.50 0.66 0.41 0.28 0.54 0.69 0.62 0.16 0.01 0.02 0.01 0.02 0.02 0.02 0.09 0.17 0.29 0.49 0.43 0.31 0.18 0.07 0.05 0.02 0.01 0.01 0.00 0.00 0.00 0.00 0.00 0.00 0.00 0.00 0.00 0.00 0.00 0.00 0.00
0.84 0.87 0.75 0.53 0.80 0.68 0.55 0.41 0.29 0.38 0.82 0.85 0.29 0.18 0.02 0.01 0.05 0.04 0.06 0.11 0.30 0.35 0.62 0.69 0.35 0.16 0.13 0.06 0.03 0.01 0.00 0.00 0.00 0.00 0.00 0.00 0.00 0.00 0.00 0.00 0.00 0.00 0.00 0.00
0.94 0.87 1.02 0.73 1.00 1.13 1.05 1.55 1.01 0.55 0.68 1.31 1.02 0.47 0.16 0.07 0.10 0.10 0.15 0.22 0.44 0.70 0.58 0.62 0.38 0.16 0.29 0.27 0.06 0.00 0.00 0.00 0.00 0.00 0.00 0.00 0.00 0.00 0.00 0.00 0.00 0.00 0.00 0.00
1.08 1.13 1.27 0.93 1.39 1.58 1.60 1.31 1.18 0.86 1.09 1.89 2.05 1.18 0.56 0.15 0.24 0.27 0.30 0.32 0.59 1.01 0.84 0.58 0.40 0.34 0.65 0.48 0.11 0.00 0.01 0.01 0.01 0.01 0.00 0.00 0.00 0.00 0.00 0.00 0.00 0.00 0.00 0.00
1.61 1.42 1.52 1.63 2.32 2.41 2.14 0.74 0.68 0.90 1.99 2.74 2.63 1.71 1.22 0.42 0.69 0.59 0.42 0.42 0.61 1.30 0.93 0.43 0.32 0.48 0.60 0.51 0.04 0.05 0.04 0.04 0.02 0.01 0.02 0.01 0.01 0.00 0.00 0.00 0.00 0.00 0.00 0.00
2.70 2.65 2.71 3.12 2.62 2.14 2.06 1.43 1.35 1.63 2.71 2.97 1.90 1.34 1.09 0.88 0.92 0.71 0.82 0.61 1.00 1.11 0.82 0.29 0.35 0.45 0.62 0.13 0.08 0.11 0.14 0.15 0.17 0.13 0.06 0.06 0.05 0.02 0.03 0.02 0.03 0.04 0.04 0.04
3.13 3.61 3.28 2.76 1.80 1.65 2.24 3.62 4.36 4.84 3.97 2.46 1.44 0.82 0.76 1.17 1.05 1.03 1.19 1.18 1.07 1.17 0.61 0.44 0.70 0.31 0.04 0.05 0.12 0.09 0.15 0.30 0.34 0.42 0.30 0.17 0.23 0.14 0.10 0.15 0.11 0.12 0.14 0.14
2.70 2.80 2.51 2.18 1.99 2.12 3.45 4.44 3.98 3.03 2.27 1.38 0.86 0.63 0.71 0.80 0.95 0.86 1.08 1.56 1.38 1.30 0.65 0.51 0.60 0.44 0.14 0.07 0.05 0.04 0.08 0.18 0.14 0.31 0.32 0.20 0.30 0.35 0.25 0.29 0.33 0.34 0.35 0.34
2.12 1.98 1.95 2.31 3.16 3.82 3.69 3.16 1.83 1.10 0.85 0.90 0.79 0.57 0.54 0.86 0.94 1.37 1.51 1.37 1.23 0.99 0.56 0.85 0.57 0.31 0.19 0.20 0.09 0.06 0.04 0.06 0.07 0.10 0.23 0.19 0.11 0.16 0.19 0.27 0.30 0.29 0.34 0.36
1.70 2.39 3.08 3.07 3.30 3.40 2.45 1.44 0.92 0.74 0.59 0.61 0.40 0.59 0.80 1.25 1.52 2.06 1.79 1.49 0.94 0.74 0.89 0.69 0.28 0.09 0.03 0.10 0.19 0.21 0.17 0.10 0.25 0.27 0.18 0.12 0.09 0.11 0.15 0.16 0.11 0.10 0.11 0.10
2.50 2.75 2.71 2.02 1.79 1.13 0.76 0.50 0.41 0.36 0.49 0.56 0.58 0.68 0.95 1.24 1.46 1.55 1.57 1.12 0.93 1.16 0.80 0.47 0.20 0.15 0.10 0.05 0.08 0.14 0.19 0.17 0.28 0.60 0.66 0.52 0.52 0.45 0.33 0.23 0.16 0.12 0.11 0.07
2.92 2.40 1.69 1.00 0.61 0.35 0.38 0.35 0.39 0.45 0.71 1.01 1.09 1.14 1.19 1.35 1.68 1.30 1.05 1.17 1.19 0.80 0.56 0.44 0.36 0.38 0.35 0.32 0.26 0.21 0.25 0.33 0.39 0.44 0.58 0.60 0.47 0.30 0.30 0.33 0.29 0.18 0.13 0.10
2.65 2.13 1.06 0.46 0.27 0.31 0.22 0.29 0.41 0.44 0.62 0.97 1.35 1.45 1.46 1.38 1.26 1.21 0.92 0.94 0.73 0.61 0.60 0.61 0.54 0.52 0.51 0.53 0.47 0.43 0.42 0.46 0.55 0.56 0.66 0.61 0.61 0.59 0.51 0.41 0.49 0.40 0.29 0.28
2.70 1.19 0.51 0.37 0.31 0.30 0.30 0.34 0.40 0.51 0.68 0.91 1.26 1.47 1.05 1.08 1.18 0.82 0.70 0.82 0.73 0.62 0.51 0.43 0.44 0.40 0.44 0.46 0.40 0.40 0.43 0.44 0.51 0.62 0.71 0.78 0.84 0.80 0.72 0.63 0.72 0.66 0.68 0.68

GFSNW_prec_precacc_216.txt.gz
Total_Precipitation_Accumulation
0.87 0.80 0.85 0.93 1.47 2.09 2.15 1.75 1.70 1.84 1.27 1.58 1.23 0.76 0.46 0.16 0.04 0.01 0.00 0.00 0.01 0.01 0.02 0.01 0.01 0.01 0.02 0.02 0.01 0.01 0.00 0.13 0.17 0.11 0.06 0.06 0.07 0.03 0.12 0.42 0.25 0.38 0.41 0.32
0.68 0.69 0.67 0.77 1.03 1.40 2.02 1.55 1.84 1.97 0.94 0.76 0.57 0.30 0.08 0.09 0.06 0.03 0.00 0.00 0.00 0.01 0.01 0.01 0.01 0.00 0.00 0.00 0.00 0.01 0.01 0.15 0.22 0.24 0.20 0.12 0.17 0.05 0.10 0.22 0.46 0.32 0.26 0.07
0.74 0.63 0.53 0.65 0.97 1.19 1.55 1.28 1.76 2.30 1.30 0.36 0.09 0.14 0.12 0.06 0.03 0.01 0.01 0.02 0.02 0.01 0.01 0.00 0.00 0.00 0.00 0.00 0.00 0.02 0.11 0.17 0.12 0.14 0.31 0.42 0.32 0.07 0.09 0.38 0.64 0.14 0.08 0.02
0.89 0.74 0.59 0.59 0.96 1.32 1.23 0.82 0.49 0.57 0.71 0.23 0.03 0.05 0.07 0.04 0.01 0.01 0.03 0.04 0.04 0.02 0.02 0.01 0.00 0.00 0.00 0.00 0.02 0.13 0.33 0.25 0.11 0.12 0.22 0.58 0.38 0.14 0.10 0.39 0.19 0.27 0.09 0.04
1.22 1.05 0.64 0.55 0.94 1.08 1.13 0.93 0.34 0.11 0.03 0.02 0.01 0.02 0.05 0.04 0.02 0.03 0.04 0.01 0.01 0.03 0.03 0.01 0.00 0.00 0.00 0.01 0.03 0.13 0.31 0.38 0.33 0.34 0.25 0.35 0.27 0.07 0.11 0.12 0.04 0.05 0.02 0.04
1.09 0.92 0.69 0.54 0.81 1.17 1.06 0.96 0.35 0.15 0.06 0.03 0.02 0.01 0.02 0.03 0.03 0.03 0.00 0.01 0.02 0.03 0.01 0.01 0.01 0.01 0.01 0.01 0.07 0.26 0.41 0.47 0.66 0.50 0.18 0.19 0.26 0.08 0.06 0.09 0.07 0.03 0.04 0.05
0.95 0.86 0.77 0.64 0.82 1.03 0.91 0.90 0.58 0.22 0.11 0.03 0.02 0.01 0.00 0.01 0.02 0.03 0.00 0.00 0.03 0.02 0.01 0.01 0.01 0.00 0.01 0.01 0.01 0.05 0.19 0.42 0.76 0.86 0.44 0.44 0.25 0.10 0.14 0.15 0.12 0.06 0.05 0.07
0.83 0.65 0.56 0.68 0.89 0.69 0.65 0.69 0.72 0.35 0.17 0.04 0.02 0.01 0.02 0.03 0.03 0.01 0.00 0.01 0.00 0.02 0.03 0.05 0.06 0.02 0.01 0.00 0.00 0.01 0.02 0.18 0.41 0.44 0.30 0.15 0.04 0.07 0.11 0.09 0.09 0.03 0.03 0.02
1.29 0.92 0.55 0.54 0.57 0.46 0.50 0.57 0.74 0.50 0.30 0.07 0.02 0.03 0.02 0.05 0.07 0.02 0.01 0.00 0.01 0.05 0.11 0.19 0.14 0.03 0.02 0.01 0.01 0.00 0.01 0.03 0.19 0.15 0.22 0.08 0.02 0.01 0.02 0.02 0.02 0.00 0.00 0.01
1.56 1.18 0.74 0.48 0.48 0.46 0.45 0.64 0.63 0.65 0.42 0.10 0.01 0.05 0.03 0.03 0.03 0.03 0.01 0.02 0.05 0.09 0.17 0.26 0.08 0.02 0.00 0.00 0.01 0.02 0.06 0.13 0.17 0.15 0.19 0.01 0.00 0.00 0.00 0.04 0.05 0.00 0.00 0.00
1.38 1.09 0.84 0.60 0.49 0.45 0.50 0.49 0.48 0.68 0.47 0.11 0.01 0.01 0.02 0.00 0.01 0.06 0.04 0.10 0.13 0.21 0.29 0.28 0.11 0.04 0.01 0.00 0.00 0.00 0.02 0.06 0.09 0.11 0.17 0.03 0.00 0.00 0.01 0.02 0.00 0.00 0.01 0.01
1.09 0.99 0.72 0.51 0.53 0.53 0.61 0.56 0.39 0.38 0.47 0.21 0.03 0.01 0.00 0.00 0.00 0.03 0.03 0.11 0.13 0.26 0.34 0.31 0.17 0.10 0.04 0.03 0.03 0.00 0.01 0.00 0.04 0.08 0.02 0.00 0.00 0.01 0.01 0.00 0.00 0.00 0.00 0.00
1.22 1.01 0.67 0.49 0.52 0.58 0.68 0.57 0.38 0.47 0.56 0.28 0.11 0.05 0.00 0.00 0.00 0.00 0.08 0.09 0.15 0.24 0.22 0.38 0.23 0.14 0.08 0.05 0.02 0.01 0.00 0.00 0.01 0.00 0.00 0.00 0.00 0.00 0.01 0.00 0.00 0.00 0.01 0.01
1.24 1.11 0.80 0.56 0.59 0.52 0.67 0.41 0.28 0.54 0.69 0.63 0.16 0.01 0.02 0.01 0.02 0.02 0.02 0.09 0.17 0.29 0.49 0.43 0.31 0.18 0.07 0.05 0.02 0.01 0.01 0.00 0.00 0.00 0.00 0.00 0.00 0.00 0.00 0.00 0.00 0.00 0.00 0.00
0.96 0.95 0.80 0.55 0.81 0.69 0.55 0.41 0.29 0.38 0.82 0.85 0.29 0.18 0.02 0.01 0.05 0.04 0.06 0.11 0.30 0.35 0.62 0.69 0.36 0.16 0.13 0.06 0.03 0.01 0.00 0.00 0.00 0.00 0.00 0.00 0.00 0.00 0.00 0.00 0.00 0.00 0.00 0.00
1.00 0.91 1.04 0.75 1.01 1.13 1.05 1.55 1.01 0.55 0.68 1.31 1.02 0.47 0.16 0.07 0.10 0.10 0.15 0.22 0.44 0.70 0.58 0.62 0.38 0.16 0.29 0.27 0.06 0.00 0.00 0.00 0.00 0.00 0.00 0.00 0.00 0.00 0.00 0.00 0.00 0.00 0.00 0.00
1.11 1.15 1.29 0.93 1.39 1.58 1.60 1.31 1.18 0.86 1.09 1.89 2.05 1.18 0.56 0.15 0.24 0.27 0.30 0.32 0.59 1.01 0.84 0.58 0.40 0.34 0.65 0.50 0.11 0.00 0.01 0.01 0.01 0.01 0.00 0.00 0.00 0.00 0.00 0.00 0.00 0.00 0.00 0.00
1.61 1.42 1.52 1.63 2.32 2.41 2.14 0.74 0.68 0.90 1.99 2.74 2.63 1.71 1.22 0.42 0.69 0.59 0.42 0.42 0.61 1.31 0.93 0.43 0.32 0.48 0.61 0.53 0.04 0.05 0.04 0.04 0.02 0.01 0.02 0.01 0.01 0.00 0.00 0.00 0.00 0.00 0.00 0.00
2.70 2.65 2.71 3.12 2.62 2.14 2.06 1.43 1.35 1.63 2.71 2.97 1.90 1.34 1.09 0.88 0.92 0.71 0.82 0.62 1.00 1.12 0.84 0.29 0.36 0.46 0.65 0.16 0.09 0.11 0.14 0.15 0.17 0.13 0.06 0.06 0.05 0.02 0.03 0.02 0.03 0.04 0.04 0.04
3.13 3.61 3.28 2.76 1.80 1.65 2.24 3.62 4.36 4.84 3.97 2.46 1.44 0.82 0.76 1.17 1.05 1.03 1.19 1.18 1.09 1.19 0.62 0.45 0.71 0.33 0.07 0.06 0.12 0.09 0.15 0.30 0.34 0.44 0.31 0.19 0.25 0.14 0.10 0.15 0.11 0.12 0.14 0.14
2.70 2.80 2.51 2.18 1.99 2.12 3.45 4.44 3.98 3.03 2.27 1.38 0.86 0.63 0.71 0.80 0.95 0.86 1.08 1.56 1.39 1.31 0.66 0.54 0.63 0.50 0.15 0.07 0.05 0.04 0.08 0.18 0.14 0.31 0.33 0.21 0.33 0.38 0.27 0.29 0.33 0.34 0.35 0.34
2.12 1.98 1.95 2.31 3.16 3.82 3.69 3.16 1.83 1.10 0.86 0.92 0.81 0.58 0.54 0.86 0.94 1.38 1.51 1.38 1.23 0.99 0.58 0.91 0.63 0.35 0.20 0.20 0.09 0.06 0.04 0.06 0.07 0.10 0.24 0.20 0.12 0.17 0.22 0.28 0.31 0.29 0.34 0.36
1.71 2.40 3.08 3.07 3.30 3.40 2.45 1.44 0.92 0.76 0.60 0.62 0.40 0.59 0.80 1.25 1.52 2.07 1.80 1.50 0.94 0.74 0.90 0.74 0.32 0.12 0.04 0.10 0.19 0.21 0.17 0.10 0.25 0.27 0.19 0.13 0.11 0.12 0.18 0.21 0.13 0.14 0.15 0.12
2.50 2.75 2.71 2.02 1.79 1.13 0.76 0.51 0.41 0.37 0.49 0.56 0.58 0.68 0.95 1.24 1.46 1.56 1.58 1.12 0.94 1.19 0.88 0.53 0.25 0.17 0.10 0.05 0.08 0.14 0.19 0.17 0.29 0.61 0.67 0.55 0.55 0.47 0.37 0.35 0.29 0.23 0.19 0.13
2.92 2.40 1.69 1.00 0.61 0.35 0.38 0.35 0.39 0.45 0.71 1.01 1.09 1.14 1.19 1.35 1.69 1.30 1.06 1.19 1.27 0.86 0.59 0.48 0.39 0.38 0.36 0.33 0.27 0.22 0.26 0.34 0.40 0.46 0.61 0.63 0.49 0.35 0.39 0.49 0.44 0.28 0.21 0.15
2.65 2.13 1.06 0.46 0.27 0.32 0.22 0.29 0.41 0.44 0.62 0.97 1.35 1.45 1.46 1.39 1.27 1.22 0.94 0.98 0.76 0.64 0.63 0.63 0.54 0.52 0.52 0.54 0.49 0.45 0.44 0.48 0.57 0.59 0.69 0.63 0.66 0.70 0.66 0.55 0.63 0.52 0.39 0.36
2.70 1.19 0.51 0.37 0.31 0.30 0.30 0.34 0.40 0.51 0.68 0.91 1.26 1.48 1.05 1.09 1.20 0.84 0.72 0.84 0.75 0.65 0.54 0.44 0.45 0.41 0.45 0.47 0.42 0.43 0.46 0.46 0.53 0.65 0.76 0.87 0.93 0.86 0.78 0.71 0.84 0.75 0.76 0.75

GFSNW_prec_precacc_219.txt.gz
Total_Precipitation_Accumulation
0.87 0.80 0.85 0.93 1.47 2.09 2.15 1.75 1.70 1.84 1.27 1.58 1.23 0.76 0.46 0.16 0.04 0.01 0.00 0.00 0.01 0.01 0.02 0.01 0.01 0.01 0.02 0.02 0.01 0.01 0.00 0.13 0.17 0.11 0.06 0.06 0.07 0.03 0.12 0.42 0.25 0.38 0.41 0.32
0.68 0.69 0.67 0.77 1.03 1.40 2.02 1.55 1.84 1.97 0.94 0.76 0.57 0.30 0.08 0.09 0.06 0.03 0.00 0.00 0.00 0.01 0.01 0.01 0.01 0.00 0.00 0.00 0.00 0.01 0.01 0.15 0.22 0.24 0.20 0.12 0.17 0.05 0.10 0.22 0.46 0.32 0.26 0.07
0.74 0.63 0.53 0.65 0.97 1.19 1.55 1.28 1.76 2.30 1.30 0.36 0.09 0.14 0.12 0.06 0.03 0.01 0.01 0.02 0.02 0.01 0.01 0.00 0.00 0.00 0.00 0.00 0.00 0.02 0.11 0.17 0.12 0.14 0.31 0.42 0.32 0.07 0.09 0.38 0.64 0.14 0.08 0.02
0.89 0.74 0.59 0.59 0.96 1.32 1.23 0.82 0.49 0.57 0.71 0.23 0.03 0.05 0.07 0.04 0.01 0.01 0.03 0.04 0.04 0.02 0.02 0.01 0.00 0.00 0.00 0.00 0.02 0.13 0.33 0.25 0.11 0.12 0.22 0.58 0.38 0.14 0.10 0.39 0.19 0.27 0.09 0.04
1.22 1.05 0.64 0.55 0.94 1.08 1.13 0.93 0.34 0.11 0.03 0.02 0.01 0.02 0.05 0.04 0.02 0.03 0.04 0.01 0.01 0.03 0.03 0.01 0.00 0.00 0.00 0.01 0.03 0.13 0.31 0.38 0.33 0.34 0.25 0.35 0.27 0.07 0.11 0.12 0.04 0.05 0.02 0.04
1.09 0.93 0.69 0.54 0.81 1.17 1.06 0.96 0.35 0.15 0.06 0.03 0.02 0.01 0.02 0.03 0.03 0.03 0.00 0.01 0.02 0.03 0.01 0.01 0.01 0.01 0.01 0.01 0.07 0.26 0.41 0.47 0.66 0.50 0.18 0.19 0.26 0.08 0.06 0.09 0.07 0.03 0.04 0.05
0.98 0.88 0.78 0.64 0.82 1.03 0.91 0.90 0.58 0.22 0.11 0.03 0.02 0.01 0.00 0.01 0.02 0.03 0.00 0.00 0.03 0.02 0.01 0.01 0.01 0.00 0.01 0.01 0.01 0.05 0.19 0.42 0.76 0.86 0.44 0.44 0.25 0.10 0.14 0.15 0.12 0.06 0.05 0.07
0.89 0.69 0.57 0.69 0.89 0.69 0.65 0.69 0.72 0.35 0.17 0.04 0.02 0.01 0.02 0.03 0.03 0.01 0.00 0.01 0.00 0.02 0.03 0.05 0.06 0.02 0.01 0.00 0.00 0.01 0.02 0.18 0.41 0.44 0.30 0.15 0.04 0.07 0.11 0.09 0.09 0.03 0.03 0.02
1.43 1.01 0.61 0.56 0.57 0.46 0.50 0.57 0.74 0.50 0.30 0.07 0.02 0.03 0.02 0.05 0.07 0.02 0.01 0.00 0.01 0.05 0.11 0.19 0.14 0.03 0.02 0.01 0.01 0.00 0.01 0.03 0.19 0.15 0.22 0.08 0.02 0.01 0.02 0.02 0.03 0.01 0.00 0.01
1.68 1.32 0.86 0.54 0.51 0.47 0.45 0.64 0.64 0.65 0.43 0.10 0.01 0.05 0.03 0.03 0.03 0.03 0.01 0.02 0.05 0.09 0.17 0.26 0.08 0.02 0.00 0.00 0.01 0.02 0.06 0.13 0.17 0.15 0.20 0.01 0.00 0.00 0.00 0.04 0.05 0.00 0.00 0.00
1.56 1.25 0.99 0.72 0.57 0.50 0.52 0.51 0.49 0.69 0.49 0.12 0.01 0.01 0.02 0.00 0.01 0.06 0.04 0.10 0.13 0.21 0.29 0.28 0.11 0.04 0.01 0.00 0.00 0.00 0.02 0.06 0.10 0.12 0.18 0.03 0.00 0.00 0.02 0.03 0.00 0.00 0.01 0.01
1.27 1.15 0.87 0.65 0.62 0.60 0.66 0.63 0.44 0.40 0.47 0.21 0.03 0.01 0.00 0.00 0.00 0.03 0.03 0.11 0.13 0.26 0.34 0.31 0.17 0.10 0.04 0.03 0.03 0.00 0.01 0.00 0.04 0.08 0.02 0.00 0.00 0.01 0.01 0.00 0.00 0.00 0.00 0.00
1.30 1.11 0.83 0.67 0.63 0.67 0.75 0.64 0.42 0.48 0.57 0.29 0.11 0.06 0.00 0.00 0.00 0.00 0.08 0.09 0.15 0.24 0.22 0.38 0.23 0.14 0.08 0.05 0.02 0.01 0.00 0.00 0.01 0.00 0.00 0.00 0.00 0.00 0.01 0.00 0.00 0.00 0.01 0.01
1.32 1.27 1.01 0.76 0.78 0.75 0.84 0.50 0.31 0.56 0.70 0.64 0.17 0.01 0.02 0.01 0.02 0.02 0.02 0.09 0.17 0.29 0.49 0.43 0.31 0.18 0.07 0.05 0.02 0.01 0.01 0.00 0.00 0.00 0.00 0.00 0.00 0.00 0.00 0.00 0.00 0.00 0.00 0.00
1.05 1.08 0.94 0.70 1.00 0.86 0.62 0.45 0.31 0.39 0.83 0.86 0.29 0.18 0.02 0.01 0.05 0.04 0.06 0.11 0.30 0.35 0.62 0.69 0.36 0.16 0.13 0.06 0.03 0.01 0.00 0.00 0.00 0.00 0.00 0.00 0.00 0.00 0.00 0.00 0.00 0.00 0.00 0.00
1.07 1.00 1.14 0.84 1.09 1.16 1.08 1.56 1.01 0.55 0.68 1.31 1.02 0.47 0.16 0.07 0.10 0.10 0.15 0.22 0.44 0.70 0.58 0.62 0.38 0.16 0.29 0.27 0.06 0.00 0.00 0.00 0.00 0.00 0.00 0.00 0.00 0.00 0.00 0.00 0.00 0.00 0.00 0.00
1.22 1.21 1.31 0.94 1.40 1.58 1.60 1.31 1.18 0.86 1.09 1.89 2.05 1.18 0.56 0.15 0.24 0.27 0.30 0.32 0.59 1.01 0.84 0.58 0.40 0.34 0.65 0.50 0.12 0.00 0.01 0.01 0.01 0.01 0.00 0.00 0.00 0.00 0.00 0.00 0.00 0.00 0.00 0.00
1.67 1.45 1.53 1.63 2.32 2.41 2.14 0.74 0.68 0.90 1.99 2.74 2.63 1.71 1.22 0.42 0.69 0.59 0.42 0.42 0.61 1.31 0.93 0.43 0.32 0.48 0.61 0.53 0.04 0.05 0.04 0.04 0.02 0.01 0.02 0.01 0.01 0.00 0.00 0.00 0.00 0.00 0.00 0.00
2.71 2.66 2.72 3.12 2.62 2.14 2.06 1.43 1.35 1.63 2.71 2.97 1.90 1.34 1.09 0.88 0.92 0.71 0.82 0.62 1.01 1.13 0.85 0.29 0.36 0.47 0.66 0.17 0.09 0.11 0.14 0.15 0.17 0.13 0.06 0.06 0.05 0.02 0.03 0.02 0.03 0.04 0.04 0.04
3.14 3.61 3.28 2.76 1.80 1.65 2.24 3.62 4.36 4.84 3.97 2.46 1.44 0.82 0.76 1.17 1.05 1.03 1.19 1.18 1.09 1.19 0.62 0.45 0.72 0.35 0.07 0.06 0.12 0.09 0.15 0.30 0.34 0.44 0.32 0.20 0.26 0.15 0.10 0.15 0.11 0.12 0.14 0.14
2.70 2.80 2.51 2.18 1.99 2.12 3.45 4.44 3.98 3.03 2.27 1.38 0.86 0.63 0.71 0.80 0.95 0.86 1.08 1.56 1.39 1.31 0.66 0.55 0.65 0.51 0.15 0.07 0.05 0.04 0.08 0.18 0.14 0.31 0.33 0.22 0.35 0.41 0.28 0.30 0.33 0.35 0.35 0.34
2.12 1.98 1.95 2.31 3.16 3.82 3.69 3.16 1.83 1.10 0.86 0.92 0.81 0.58 0.54 0.86 0.94 1.38 1.51 1.38 1.24 0.99 0.59 0.94 0.66 0.36 0.20 0.20 0.09 0.06 0.04 0.06 0.07 0.10 0.24 0.20 0.12 0.18 0.24 0.29 0.31 0.30 0.35 0.37
1.71 2.40 3.08 3.07 3.30 3.40 2.45 1.44 0.92 0.76 0.60 0.62 0.40 0.59 0.80 1.25 1.52 2.07 1.80 1.50 0.94 0.74 0.90 0.75 0.33 0.12 0.04 0.10 0.19 0.21 0.17 0.10 0.25 0.27 0.19 0.13 0.11 0.12 0.19 0.22 0.14 0.15 0.18 0.18
2.50 2.75 2.71 2.02 1.79 1.13 0.76 0.51 0.41 0.37 0.49 0.56 0.58 0.68 0.95 1.24 1.46 1.56 1.58 1.12 0.94 1.20 0.89 0.53 0.25 0.17 0.10 0.05 0.08 0.14 0.19 0.17 0.29 0.61 0.67 0.55 0.55 0.47 0.37 0.36 0.32 0.28 0.24 0.19
2.92 2.40 1.69 1.00 0.62 0.36 0.39 0.35 0.39 0.45 0.71 1.01 1.09 1.14 1.19 1.35 1.69 1.30 1.06 1.20 1.28 0.86 0.59 0.49 0.39 0.38 0.36 0.33 0.27 0.22 0.26 0.34 0.40 0.46 0.62 0.64 0.50 0.35 0.39 0.51 0.47 0.33 0.28 0.23
2.65 2.13 1.06 0.46 0.27 0.32 0.22 0.29 0.41 0.44 0.62 0.97 1.35 1.45 1.46 1.39 1.27 1.22 0.94 0.98 0.76 0.65 0.64 0.63 0.54 0.52 0.52 0.54 0.49 0.45 0.44 0.48 0.58 0.59 0.69 0.63 0.67 0.72 0.70 0.57 0.65 0.56 0.44 0.41
2.70 1.19 0.51 0.37 0.31 0.30 0.30 0.34 0.40 0.51 0.68 0.91 1.26 1.48 1.05 1.09 1.20 0.85 0.72 0.85 0.75 0.65 0.54 0.44 0.45 0.42 0.45 0.47 0.43 0.43 0.46 0.46 0.53 0.65 0.76 0.88 0.94 0.87 0.78 0.73 0.87 0.80 0.80 0.80

GFSNW_prec_precacc_222.txt.gz
Total_Precipitation_Accumulation
0.87 0.80 0.85 0.93 1.47 2.09 2.15 1.75 1.70 1.84 1.27 1.58 1.23 0.76 0.46 0.16 0.04 0.01 0.00 0.00 0.01 0.01 0.02 0.01 0.01 0.01 0.02 0.02 0.01 0.01 0.00 0.13 0.17 0.11 0.06 0.06 0.07 0.03 0.12 0.42 0.25 0.38 0.41 0.32
0.68 0.69 0.67 0.77 1.03 1.40 2.02 1.55 1.84 1.97 0.94 0.76 0.57 0.30 0.08 0.09 0.06 0.03 0.00 0.00 0.00 0.01 0.01 0.01 0.01 0.00 0.00 0.00 0.00 0.01 0.01 0.15 0.22 0.24 0.20 0.12 0.17 0.05 0.10 0.22 0.46 0.33 0.28 0.07
0.74 0.63 0.53 0.65 0.97 1.19 1.55 1.28 1.76 2.30 1.30 0.36 0.09 0.14 0.12 0.06 0.03 0.01 0.01 0.02 0.02 0.01 0.01 0.00 0.00 0.00 0.00 0.00 0.00 0.02 0.11 0.17 0.12 0.14 0.31 0.42 0.32 0.07 0.09 0.38 0.64 0.15 0.08 0.02
0.90 0.75 0.59 0.59 0.96 1.32 1.23 0.82 0.49 0.57 0.71 0.23 0.03 0.05 0.07 0.04 0.01 0.01 0.03 0.04 0.04 0.02 0.02 0.01 0.00 0.00 0.00 0.00 0.02 0.13 0.33 0.25 0.11 0.12 0.22 0.58 0.38 0.14 0.10 0.39 0.19 0.27 0.09 0.04
1.23 1.05 0.65 0.55 0.94 1.08 1.13 0.93 0.34 0.11 0.03 0.02 0.01 0.02 0.05 0.04 0.02 0.03 0.04 0.01 0.01 0.03 0.03 0.01 0.00 0.00 0.00 0.01 0.03 0.13 0.31 0.38 0.33 0.34 0.25 0.35 0.27 0.07 0.11 0.12 0.04 0.05 0.02 0.04
1.13 0.95 0.71 0.55 0.81 1.17 1.06 0.96 0.35 0.15 0.06 0.03 0.02 0.01 0.02 0.03 0.03 0.03 0.00 0.01 0.02 0.03 0.01 0.01 0.01 0.01 0.01 0.01 0.07 0.26 0.41 0.47 0.66 0.50 0.18 0.19 0.26 0.08 0.06 0.09 0.07 0.03 0.04 0.06
1.04 0.94 0.82 0.67 0.83 1.03 0.91 0.90 0.58 0.22 0.11 0.03 0.02 0.01 0.00 0.01 0.02 0.03 0.00 0.00 0.03 0.02 0.01 0.01 0.01 0.00 0.01 0.01 0.01 0.05 0.19 0.42 0.76 0.86 0.44 0.44 0.25 0.10 0.14 0.15 0.13 0.08 0.05 0.07
1.01 0.80 0.63 0.74 0.92 0.70 0.65 0.69 0.72 0.35 0.17 0.04 0.02 0.01 0.02 0.03 0.03 0.01 0.00 0.01 0.00 0.02 0.03 0.05 0.06 0.02 0.01 0.00 0.00 0.01 0.02 0.18 0.41 0.44 0.30 0.15 0.04 0.07 0.11 0.09 0.10 0.04 0.03 0.02
1.63 1.20 0.78 0.70 0.66 0.51 0.52 0.57 0.74 0.50 0.30 0.08 0.02 0.03 0.02 0.05 0.07 0.02 0.01 0.00 0.01 0.05 0.11 0.19 0.14 0.03 0.02 0.01 0.01 0.00 0.01 0.03 0.19 0.15 0.22 0.08 0.02 0.01 0.02 0.02 0.04 0.01 0.00 0.01
1.84 1.54 1.07 0.73 0.66 0.57 0.49 0.69 0.67 0.68 0.47 0.12 0.02 0.07 0.05 0.03 0.03 0.03 0.01 0.02 0.05 0.09 0.17 0.26 0.08 0.02 0.00 0.00 0.01 0.02 0.06 0.13 0.17 0.15 0.21 0.01 0.00 0.00 0.00 0.05 0.05 0.00 0.00 0.00
1.81 1.51 1.19 0.94 0.77 0.64 0.62 0.65 0.61 0.77 0.59 0.20 0.06 0.04 0.03 0.01 0.01 0.06 0.04 0.10 0.13 0.21 0.29 0.28 0.11 0.04 0.01 0.00 0.00 0.00 0.02 0.06 0.10 0.12 0.19 0.03 0.00 0.00 0.02 0.03 0.00 0.00 0.01 0.01
1.41 1.28 1.00 0.80 0.78 0.74 0.77 0.79 0.61 0.55 0.63 0.35 0.08 0.03 0.01 0.00 0.00 0.03 0.03 0.11 0.13 0.26 0.34 0.31 0.17 0.10 0.04 0.03 0.03 0.00 0.01 0.00 0.04 0.08 0.02 0.00 0.00 0.01 0.01 0.00 0.00 0.00 0.00 0.00
1.34 1.17 0.89 0.75 0.72 0.72 0.79 0.73 0.61 0.69 0.73 0.38 0.15 0.06 0.01 0.00 0.00 0.00 0.08 0.09 0.15 0.24 0.22 0.38 0.23 0.14 0.08 0.05 0.02 0.01 0.00 0.00 0.01 0.00 0.00 0.00 0.00 0.00 0.01 0.00 0.00 0.00 0.01 0.01
1.34 1.30 1.05 0.80 0.82 0.78 0.89 0.63 0.49 0.68 0.80 0.70 0.20 0.02 0.02 0.01 0.02 0.02 0.02 0.09 0.17 0.29 0.49 0.43 0.31 0.18 0.07 0.05 0.02 0.01 0.01 0.00 0.00 0.00 0.00 0.00 0.00 0.00 0.00 0.00 0.00 0.00 0.00 0.00
1.08 1.11 1.00 0.75 1.05 0.89 0.66 0.53 0.40 0.44 0.86 0.91 0.32 0.19 0.03 0.02 0.05 0.04 0.06 0.11 0.30 0.35 0.62 0.69 0.36 0.16 0.13 0.06 0.03 0.01 0.00 0.00 0.00 0.00 0.00 0.00 0.00 0.00 0.00 0.00 0.00 0.00 0.00 0.00
1.10 1.06 1.19 0.89 1.16 1.19 1.11 1.63 1.06 0.57 0.69 1.33 1.03 0.47 0.16 0.07 0.10 0.10 0.15 0.22 0.44 0.70 0.58 0.62 0.38 0.16 0.29 0.27 0.06 0.00 0.00 0.00 0.00 0.00 0.00 0.00 0.00 0.00 0.00 0.00 0.00 0.00 0.00 0.00
1.28 1.29 1.40 1.05 1.46 1.60 1.61 1.31 1.18 0.86 1.09 1.89 2.05 1.18 0.56 0.15 0.24 0.27 0.30 0.32 0.59 1.01 0.84 0.58 0.40 0.34 0.65 0.50 0.12 0.00 0.01 0.01 0.01 0.01 0.00 0.00 0.00 0.00 0.00 0.00 0.00 0.00 0.00 0.00
1.75 1.53 1.60 1.70 2.36 2.42 2.14 0.74 0.68 0.90 1.99 2.74 2.63 1.71 1.22 0.42 0.69 0.59 0.42 0.42 0.61 1.31 0.93 0.43 0.32 0.48 0.61 0.53 0.04 0.05 0.04 0.04 0.02 0.01 0.02 0.01 0.01 0.00 0.00 0.00 0.00 0.00 0.00 0.00
2.73 2.68 2.73 3.13 2.62 2.14 2.07 1.43 1.35 1.63 2.71 2.97 1.90 1.34 1.09 0.88 0.92 0.71 0.82 0.62 1.01 1.13 0.86 0.29 0.36 0.47 0.67 0.17 0.09 0.11 0.14 0.15 0.17 0.13 0.06 0.06 0.05 0.02 0.03 0.02 0.03 0.04 0.04 0.04
3.14 3.61 3.29 2.77 1.80 1.65 2.24 3.62 4.36 4.84 3.97 2.46 1.44 0.82 0.76 1.17 1.05 1.03 1.19 1.18 1.09 1.20 0.62 0.46 0.72 0.36 0.08 0.06 0.12 0.09 0.15 0.30 0.34 0.45 0.32 0.20 0.26 0.15 0.10 0.15 0.11 0.12 0.15 0.15
2.70 2.80 2.52 2.19 1.99 2.12 3.45 4.44 3.98 3.03 2.27 1.38 0.86 0.63 0.71 0.80 0.95 0.86 1.08 1.56 1.39 1.31 0.67 0.57 0.66 0.52 0.15 0.07 0.05 0.04 0.08 0.18 0.14 0.31 0.34 0.22 0.37 0.42 0.29 0.30 0.33 0.35 0.36 0.35
2.12 1.98 1.96 2.31 3.16 3.82 3.69 3.16 1.83 1.10 0.86 0.92 0.81 0.58 0.54 0.86 0.94 1.38 1.52 1.38 1.24 0.99 0.60 0.95 0.67 0.36 0.20 0.20 0.09 0.06 0.04 0.06 0.07 0.10 0.24 0.20 0.12 0.19 0.25 0.30 0.32 0.31 0.36 0.39
1.71 2.40 3.08 3.07 3.30 3.40 2.45 1.44 0.92 0.76 0.60 0.62 0.40 0.59 0.80 1.25 1.52 2.07 1.81 1.51 0.94 0.75 0.90 0.76 0.33 0.12 0.04 0.10 0.19 0.21 0.17 0.10 0.25 0.27 0.19 0.13 0.11 0.12 0.19 0.24 0.15 0.16 0.20 0.20
2.50 2.76 2.71 2.02 1.79 1.13 0.76 0.51 0.41 0.38 0.49 0.56 0.58 0.68 0.95 1.24 1.46 1.56 1.58 1.12 0.94 1.21 0.89 0.54 0.26 0.17 0.10 0.05 0.08 0.14 0.19 0.17 0.29 0.61 0.67 0.55 0.55 0.47 0.38 0.37 0.34 0.31 0.27 0.22
2.92 2.40 1.69 1.00 0.62 0.36 0.39 0.36 0.39 0.45 0.71 1.01 1.09 1.14 1.19 1.35 1.69 1.30 1.06 1.20 1.28 0.86 0.60 0.49 0.39 0.39 0.36 0.33 0.27 0.22 0.26 0.34 0.40 0.46 0.62 0.64 0.50 0.35 0.39 0.52 0.49 0.35 0.30 0.25
2.65 2.13 1.06 0.47 0.27 0.33 0.22 0.29 0.41 0.44 0.62 0.97 1.35 1.45 1.46 1.39 1.27 1.23 0.94 0.98 0.76 0.65 0.64 0.64 0.55 0.52 0.52 0.54 0.49 0.45 0.45 0.49 0.58 0.59 0.70 0.64 0.67 0.73 0.72 0.59 0.66 0.57 0.45 0.42
2.70 1.19 0.51 0.37 0.31 0.30 0.30 0.34 0.40 0.51 0.68 0.91 1.26 1.48 1.05 1.09 1.20 0.85 0.72 0.85 0.75 0.65 0.54 0.44 0.45 0.42 0.45 0.47 0.43 0.43 0.46 0.46 0.53 0.65 0.76 0.88 0.94 0.88 0.78 0.73 0.88 0.81 0.83 0.82